Everett, WA

6:05 AM PST on December 09, 2019 (GMT -0800)
Snohomish County

Weather History for KPAE - November, 2019

Change the Weather History Date:

Thursday, November 14, 2019

  Actual Average Record
Temperature  
Mean Temperature 49 °F -  
Max Temperature 54 °F 50 °F 60 °F (2001)
Min Temperature 44 °F 35 °F 0 °F (1993)
Degree Days  
Heating Degree Days 16    
Moisture  
Dew Point 43 °F    
Average Humidity 81    
Maximum Humidity 97    
Minimum Humidity 69    
Precipitation  
Precipitation 0.00 in - - ()
Sea Level Pressure  
Sea Level Pressure 30.00 in    
Wind  
Wind Speed 3 mph (SSE)    
Max Wind Speed 15 mph    
Max Gust Speed -    
Visibility 8 miles    
Events Fog , Rain    
Averages and records for this station are not official NWS values.
T = Trace of Precipitation, MM = Missing Value Source: NWS Daily Summary

Daily Weather History Graph

Daily Weather History Graph

Search for Another Location

Airport or City:

Astronomy

Nov. 14, 2019 Rise Set
Actual Time 7:13 AM PST 4:32 PM PST
Civil Twilight 6:39 AM PST 5:06 PM PST
Nautical Twilight 6:02 AM PST 5:44 PM PST
Astronomical Twilight 5:25 AM PST 6:20 PM PST
Moon 6:16 PM PST (11/14) 9:20 AM PST (11/14)
Length of Visible Light 10h 26m
Length of Day
9h 19m
Waning Gibbous, 95% of the Moon is Illuminated
Nov 14
Waning Gibbous
Nov 19
Last Quarter
Nov 26
New
Dec 3
First Quarter
Dec 11
Full

Hourly Weather History & Observations

Time (PST) Temp. Windchill Dew Point Humidity Pressure Visibility Wind Dir Wind Speed Gust Speed Precip Events Conditions
12:40 AM 45.0 °F - 44.1 °F 97% 30.04 in 0.5 mi Calm Calm - N/A Fog Fog
12:53 AM 45.0 °F 43.5 °F 44.1 °F 97% 30.04 in 1.2 mi NE 3.5 mph - N/A   Mostly Cloudy
12:59 AM 45.0 °F - 44.1 °F 97% 30.03 in 3.0 mi Calm Calm - N/A   Mostly Cloudy
1:15 AM 45.0 °F - 44.1 °F 97% 30.03 in 2.0 mi Calm Calm - N/A   Partly Cloudy
1:27 AM 45.0 °F - 44.1 °F 97% 30.03 in 4.0 mi Calm Calm - N/A   Clear
1:53 AM 45.0 °F - 44.1 °F 97% 30.03 in 6.0 mi Calm Calm - N/A   Clear
2:53 AM 44.1 °F - 43.0 °F 96% 30.04 in 7.0 mi Calm Calm - N/A   Clear
3:53 AM 46.0 °F 44.8 °F 41.0 °F 83% 30.02 in 10.0 mi East 3.5 mph - N/A   Clear
4:53 AM 45.0 °F - 39.9 °F 82% 30.02 in 10.0 mi Calm Calm - N/A   Clear
5:53 AM 48.9 °F - 39.9 °F 71% 30.01 in 10.0 mi ESE 3.5 mph - N/A   Scattered Clouds
6:53 AM 46.9 °F - 39.9 °F 77% 30.03 in 10.0 mi Calm Calm - N/A   Clear
7:53 AM 48.0 °F - 39.9 °F 74% 30.03 in 10.0 mi SSE 5.8 mph - N/A   Clear
8:53 AM 46.9 °F - 42.1 °F 83% 30.03 in 10.0 mi SSE 4.6 mph - N/A   Clear
9:53 AM 48.9 °F - 43.0 °F 80% 30.03 in 10.0 mi SSE 8.1 mph - N/A   Clear
10:53 AM 52.0 °F - 42.1 °F 69% 30.01 in 10.0 mi SSE 6.9 mph - N/A   Clear
11:53 AM 53.1 °F - 44.1 °F 71% 30.00 in 10.0 mi South 4.6 mph - N/A   Clear
12:53 PM 52.0 °F - 45.0 °F 77% 29.98 in 10.0 mi Calm Calm - N/A   Partly Cloudy
1:53 PM 54.0 °F - 45.0 °F 72% 29.96 in 10.0 mi Calm Calm - N/A   Overcast
2:53 PM 54.0 °F - 45.0 °F 72% 29.98 in 10.0 mi West 9.2 mph - 0.00 in Rain Light Rain
3:53 PM 52.0 °F - 46.0 °F 80% 29.98 in 10.0 mi North - - 0.00 in   Clear
4:53 PM 53.1 °F - 44.1 °F 71% 29.98 in 10.0 mi SSW 8.1 mph - N/A   Partly Cloudy
5:53 PM 51.1 °F - 46.0 °F 83% 29.98 in 9.0 mi SSE 8.1 mph - N/A   Overcast
6:53 PM 52.0 °F - 45.0 °F 77% 29.96 in 10.0 mi Variable 3.5 mph - N/A   Scattered Clouds
7:53 PM 52.0 °F - 43.0 °F 71% 29.96 in 10.0 mi SSE 9.2 mph - N/A   Clear
8:53 PM 52.0 °F - 43.0 °F 71% 29.95 in 10.0 mi SSE 8.1 mph - N/A   Scattered Clouds
9:53 PM 53.1 °F - 43.0 °F 69% 29.94 in 10.0 mi SSE 10.4 mph - N/A   Clear
10:53 PM 51.1 °F - 43.0 °F 74% 29.96 in 10.0 mi SSE 13.8 mph - N/A   Clear
11:53 PM 51.1 °F - 43.0 °F 74% 29.98 in 10.0 mi SSE 15.0 mph - N/A   Clear